Theta_e
339 338 340 341 341 342 343 345 346 346 345 345 344 341 338 334 331 331 328 341 346 354 359 361 358 355 353 350 348 346 344 340 336 334 332 331 331 330 330 329 327 325 325
335 331 331 330 332 341 342 343 344 343 343 344 342 341 338 337 334 331 331 336 355 355 358 360 359 356 354 352 349 347 345 342 338 335 333 332 331 330 330 330 328 327 326
333 334 329 328 328 341 343 342 344 344 341 342 341 342 340 338 336 334 332 338 351 355 356 359 359 357 355 354 350 348 346 344 340 338 335 332 332 330 331 330 328 328 327
335 337 336 331 333 337 346 342 341 341 341 340 340 341 340 339 338 336 334 338 347 350 355 357 358 357 356 355 353 350 347 344 341 339 337 333 332 331 331 330 329 328 327
331 333 338 342 341 338 342 344 341 331 323 325 336 338 338 337 337 338 335 332 340 346 347 353 355 355 355 355 355 353 349 345 342 340 338 334 333 332 332 331 330 328 328
330 327 330 330 332 338 343 342 340 336 333 335 339 339 335 335 336 335 336 335 332 338 343 345 351 353 353 354 354 354 351 348 344 340 338 336 336 334 333 332 331 330 329
324 324 325 327 329 331 334 339 337 335 336 338 330 334 331 333 333 335 337 335 334 332 338 343 345 350 351 352 352 353 353 351 345 341 339 337 337 335 334 333 331 330 329
323 323 322 322 323 327 330 332 335 334 331 333 332 322 326 327 329 331 332 335 334 336 336 341 344 347 348 345 344 335 346 346 349 345 340 337 337 337 335 332 331 329 327
323 322 321 319 321 324 324 328 330 329 331 331 330 328 319 319 320 324 327 329 330 331 336 342 343 345 337 332 334 336 343 343 343 344 344 340 338 336 334 330 328 325 323
321 322 321 319 320 322 322 325 330 331 328 329 329 332 330 324 319 320 325 330 332 331 331 338 341 336 335 332 336 338 338 337 340 339 342 341 338 333 327 323 322 321 320
318 320 319 319 317 321 320 322 322 325 329 328 327 328 324 326 329 325 322 325 326 327 326 325 327 330 332 333 333 334 336 337 336 334 332 329 327 323 320 319 318 318 318
313 315 316 316 316 315 316 317 318 321 323 328 329 329 328 323 323 324 324 325 322 323 326 329 332 330 327 327 332 332 331 330 327 326 325 322 319 317 313 312 313 316 317
308 308 308 309 311 312 313 314 316 319 322 325 328 326 328 330 330 324 320 324 320 321 322 328 329 324 327 325 325 330 329 323 321 319 318 317 315 313 311 312 313 314 316
308 309 309 308 309 310 313 315 317 319 323 325 324 326 329 329 329 330 327 323 318 320 321 319 325 325 324 324 325 326 320 320 317 316 316 315 315 313 312 311 311 311 311
307 307 307 306 308 309 310 309 311 312 318 322 322 325 326 329 329 328 326 325 321 314 316 321 319 320 322 320 321 315 314 320 318 316 315 315 315 314 312 311 310 310 310
305 306 306 307 307 309 310 309 309 311 314 317 321 322 325 328 327 327 327 324 324 321 315 319 316 316 315 316 320 311 312 318 318 318 317 315 314 314 313 311 309 309 309
303 305 306 307 308 308 310 311 310 313 314 314 317 320 323 326 328 325 324 322 321 319 314 310 314 314 313 313 313 311 312 310 310 314 317 316 314 313 313 312 310 309 309
303 304 305 306 307 308 309 310 310 312 314 317 317 319 322 326 323 322 321 319 315 315 311 307 308 310 310 310 310 308 310 310 308 313 315 316 315 313 312 310 310 310 308
302 303 305 305 306 307 309 310 311 311 313 314 314 316 320 321 320 315 313 313 312 312 311 308 307 310 309 307 305 306 308 308 311 315 315 315 314 313 311 310 309 308 307
302 303 304 305 307 308 309 310 311 313 313 315 316 318 319 320 315 312 311 310 310 310 307 305 300 301 304 306 306 304 304 307 305 309 312 312 311 312 312 311 310 309 306
301 303 304 305 307 309 310 310 311 313 313 311 310 312 313 315 315 313 310 307 307 304 302 300 302 303 303 303 302 303 302 303 303 304 302 302 304 304 307 311 311 311 307
300 301 301 305 308 311 307 307 311 313 310 307 305 306 308 309 309 308 308 308 306 303 301 301 303 302 302 303 303 301 300 297 296 301 301 300 302 300 302 303 306 306 304
297 297 298 300 300 300 301 304 307 304 302 302 302 302 303 305 306 305 307 307 306 306 307 305 301 301 301 301 301 299 299 296 296 299 298 297 299 301 300 302 303 302 301
295 295 296 297 297 298 299 299 301 300 299 299 300 301 300 301 302 302 301 301 302 301 303 304 302 302 301 301 300 299 297 296 297 301 301 296 295 295 298 300 302 302 301
294 295 295 296 295 296 297 297 299 299 298 298 299 299 299 299 298 299 301 300 300 297 301 303 301 299 297 298 300 298 295 293 292 299 301 299 296 294 297 298 301 302 301
295 295 295 295 297 295 295 297 299 299 297 298 299 299 299 298 297 298 301 300 298 297 299 299 298 299 298 298 301 301 300 297 297 296 301 297 297 296 293 297 298 299 300
Wind_Speed
6 4 5 4 5 5 8 8 9 8 8 9 9 10 11 10 10 6 5 17 17 20 24 27 26 25 25 25 24 23 22 23 22 20 18 16 14 12 10 8 6 5 6
6 4 7 8 6 6 7 7 8 7 8 7 9 10 12 10 10 10 7 8 14 21 25 26 25 25 26 26 24 25 24 23 23 21 19 17 16 13 11 9 7 7 7
7 9 5 6 9 5 7 5 5 5 5 4 8 10 10 12 10 11 9 7 6 20 24 25 25 26 26 26 26 26 25 24 24 22 20 19 17 14 12 10 9 9 8
7 8 7 5 8 8 6 6 5 6 7 6 8 9 8 9 12 11 9 7 7 8 16 22 24 25 26 27 28 28 25 25 24 23 21 20 18 16 14 12 10 9 9
11 7 7 8 8 8 11 6 6 5 5 5 7 7 7 7 8 9 10 7 10 9 8 19 26 26 27 29 30 27 25 25 25 24 23 22 20 19 18 15 12 11 11
5 6 7 8 10 7 8 7 8 5 5 5 6 6 5 5 4 5 8 7 6 9 9 10 12 15 28 30 31 29 30 31 30 26 23 22 22 21 18 16 14 13 13
5 5 4 6 9 9 8 8 4 6 4 3 1 6 4 5 6 7 6 5 7 7 7 9 8 9 11 28 26 23 31 30 28 25 21 21 20 20 19 16 13 13 12
6 7 6 8 8 7 11 9 6 6 3 4 7 1 7 7 4 5 4 6 8 6 7 10 9 11 8 6 7 5 7 15 23 27 23 23 24 22 17 14 12 11 9
7 7 7 6 8 6 8 8 7 7 7 3 7 5 1 6 2 2 5 5 5 1 3 6 8 8 5 4 3 5 15 17 23 24 34 28 20 16 14 10 8 9 10
7 8 8 6 6 6 7 7 7 6 3 7 2 5 7 4 3 8 2 3 1 2 2 2 3 4 4 4 8 14 13 15 17 12 13 15 17 12 7 5 9 9 11
7 7 7 7 8 3 5 7 10 10 5 6 4 4 4 4 6 8 12 9 2 3 1 2 3 3 3 4 6 8 11 14 19 20 16 14 13 9 7 8 9 10 11
5 6 8 7 6 6 6 7 9 10 9 8 7 5 5 4 4 4 7 9 4 2 3 3 4 4 4 4 6 10 14 13 14 16 16 13 10 8 5 4 7 10 11
8 9 7 8 8 8 10 9 9 10 8 7 6 6 4 7 6 4 3 7 4 2 2 1 2 3 4 1 1 6 11 12 10 13 12 11 7 5 4 3 5 9 10
9 12 11 10 11 11 10 7 5 6 9 6 7 6 5 5 4 7 7 6 5 2 2 3 2 2 2 1 4 9 6 9 9 9 9 9 7 7 6 5 6 7 6
11 15 15 13 14 13 12 10 9 9 10 7 7 7 6 6 5 5 5 6 6 5 5 4 4 2 2 3 5 4 4 8 7 6 8 9 9 9 9 8 7 6 6
15 15 14 13 13 13 13 13 10 10 10 7 6 8 8 7 5 4 6 5 5 7 5 2 2 2 3 3 7 5 4 5 4 5 8 10 10 11 9 9 6 7 6
15 15 14 14 15 14 13 12 12 13 9 8 9 10 11 9 7 4 4 4 4 4 4 1 2 2 3 4 4 3 2 2 1 8 11 11 12 12 11 8 8 8 7
15 15 15 15 15 14 14 12 12 10 9 9 5 7 9 6 8 6 5 6 5 4 5 4 2 1 3 5 5 3 2 2 3 6 8 8 11 13 11 11 8 8 9
16 15 15 15 15 14 14 13 13 11 10 9 6 8 10 8 6 3 3 5 5 3 5 5 3 2 3 3 2 2 2 3 2 5 6 7 10 11 11 11 11 11 10
15 14 14 15 15 15 14 12 12 9 9 9 6 6 7 7 6 8 6 7 7 7 7 6 5 3 4 4 4 3 3 3 3 4 5 2 5 11 8 10 11 12 11
12 12 13 14 14 12 9 11 10 8 5 5 3 4 4 9 14 10 8 7 9 8 8 7 6 5 3 3 3 2 1 1 1 1 3 3 3 2 4 3 6 11 9
11 11 11 11 8 4 7 11 8 6 8 8 8 9 10 16 19 18 16 11 9 14 9 5 4 7 4 3 2 1 0 1 1 0 3 4 2 3 3 3 6 6 6
12 12 12 12 12 12 11 14 13 9 10 8 8 9 11 9 14 14 20 20 18 17 12 8 8 4 3 2 3 2 1 1 1 3 1 1 3 1 1 2 5 5 3
11 10 12 13 13 14 22 18 24 14 13 13 10 11 10 9 8 10 11 12 11 9 8 6 7 5 5 3 4 3 3 1 1 2 2 1 1 2 1 2 4 2 6
11 11 11 14 15 16 23 18 16 14 15 15 11 11 10 10 10 9 11 11 11 7 8 10 9 10 8 7 3 3 3 4 2 2 3 0 1 2 2 2 4 7 6
11 10 13 13 20 16 24 23 13 9 15 11 11 11 14 9 12 10 8 8 9 4 5 5 4 5 3 4 4 4 3 3 1 1 1 3 2 3 3 2 1 3 3
Wind_Direction
262 274 267 254 237 229 221 215 221 216 224 227 233 236 244 244 244 240 237 235 238 223 213 208 206 206 208 208 207 204 199 200 199 199 201 205 210 215 218 225 240 254 268
259 256 259 266 263 236 237 224 216 218 229 222 232 235 240 242 245 241 241 245 234 210 207 210 207 208 211 212 210 207 202 201 202 201 202 207 211 213 218 224 240 250 266
280 277 254 259 266 259 236 229 213 215 230 215 236 233 231 239 240 240 239 233 217 213 209 209 210 211 213 214 215 214 207 203 204 200 201 205 211 217 223 227 237 247 260
289 288 293 280 282 279 248 220 222 218 222 212 238 248 233 237 241 237 227 214 206 207 218 218 214 214 215 216 215 215 213 211 209 203 198 204 210 214 222 229 235 249 259
333 329 307 296 287 267 271 236 232 210 201 215 228 244 251 239 239 247 249 215 206 203 202 216 217 216 217 218 219 211 208 223 212 208 199 201 209 212 217 222 228 242 255
2 338 324 317 314 297 268 251 240 231 242 234 238 252 224 229 231 239 243 251 213 210 206 211 215 220 221 221 222 211 207 214 214 206 201 203 207 215 216 219 224 237 255
332 325 317 320 323 322 301 289 265 229 251 241 325 264 288 251 248 239 229 231 246 225 202 210 209 216 227 229 231 230 224 209 213 209 212 211 213 215 218 222 227 240 253
312 319 319 321 312 310 317 309 301 283 242 195 244 248 277 291 266 246 237 239 240 238 199 219 209 215 215 216 178 310 339 232 246 219 214 218 210 214 216 225 239 257 268
299 303 300 295 303 304 304 301 292 263 272 252 216 200 268 236 343 293 254 249 266 171 199 203 206 198 183 193 209 258 223 236 248 248 242 216 206 205 211 226 249 265 267
282 287 291 279 280 293 300 308 303 277 231 270 254 221 231 180 249 302 307 317 19 175 140 110 194 178 197 212 229 225 247 268 273 312 320 178 178 170 189 237 255 261 265
273 275 279 285 292 278 303 308 322 325 296 263 240 247 226 239 240 233 275 270 330 65 151 192 211 230 234 184 200 196 164 172 162 162 153 154 145 148 192 226 248 263 267
279 275 286 282 281 280 287 292 292 295 295 284 263 237 223 212 212 207 239 266 232 181 195 213 189 191 200 194 198 163 164 151 149 135 143 139 147 169 190 263 282 269 265
288 283 273 279 277 280 284 281 276 273 267 272 266 247 222 220 234 196 199 264 230 204 170 209 188 204 189 159 182 168 154 152 136 122 135 138 142 169 195 225 271 275 269
278 285 283 279 282 277 276 261 268 288 283 276 286 261 249 231 211 221 229 224 261 225 204 202 208 229 180 129 176 167 147 132 133 132 131 149 179 207 215 220 245 251 270
286 290 287 285 277 271 260 265 264 269 270 270 273 273 259 247 227 211 214 217 212 241 233 196 191 206 160 156 177 122 135 157 145 165 183 188 195 216 215 231 235 233 249
293 290 280 271 270 271 271 266 258 255 246 254 255 262 264 252 235 216 218 221 201 202 224 146 175 135 123 125 159 146 142 146 224 214 205 216 213 219 215 229 236 233 241
286 284 281 275 271 267 265 263 256 247 240 250 253 253 257 249 248 227 230 211 185 146 164 117 86 116 105 126 97 109 143 139 198 248 242 233 217 222 218 215 220 230 235
286 283 279 273 268 264 257 253 257 261 257 245 241 248 253 254 239 229 210 189 151 144 140 118 94 150 117 134 145 124 221 222 219 239 255 255 212 220 216 213 211 225 225
291 286 279 271 267 259 255 243 243 243 243 253 246 257 262 254 245 179 151 139 121 114 104 125 122 204 112 124 131 127 63 19 34 322 293 206 211 222 219 210 211 213 215
295 289 283 276 266 259 245 241 239 232 230 241 244 243 241 225 179 139 127 122 121 105 87 101 99 86 86 58 87 67 33 26 322 349 298 228 235 249 254 216 214 211 211
307 299 293 283 266 254 239 224 228 224 202 139 112 95 70 109 113 118 132 127 126 111 113 128 111 104 90 78 79 36 350 297 282 22 345 1 1 55 37 175 208 217 199
335 338 338 344 6 309 235 211 210 214 136 127 111 89 85 87 87 92 99 108 129 129 127 109 117 120 125 120 120 161 205 349 1 337 28 6 66 50 43 51 73 105 141
353 1 1 10 21 7 330 209 123 102 100 95 94 97 88 84 91 96 89 87 79 78 88 115 116 98 97 123 131 115 148 130 234 304 114 112 8 22 159 124 114 112 157
2 8 14 22 29 25 34 77 100 96 87 78 78 81 88 87 85 99 102 94 82 70 74 88 91 93 90 127 138 152 155 185 289 357 47 91 340 278 230 195 172 197 274
10 18 22 32 40 37 35 39 78 88 88 78 64 70 75 77 69 66 93 97 88 66 62 88 98 109 117 113 115 102 60 74 29 2 14 153 247 301 310 253 229 254 298
20 26 36 35 43 45 37 38 45 78 88 86 72 62 59 68 59 54 81 85 82 82 110 100 100 94 117 76 65 57 41 73 92 356 281 4 7 16 318 257 273 290 292